| time (UTC) | temp F | wind direction | speed MPH | gust MPH | rain 1hr in | rain 24hr in | rain mn in | humidity % | barometer mb |
| 20260505062150 | 62 | 81 | 2.0 | 5.0 | 0.00 | 0.00 | 0.00 | 69 | 993.8 |
| 20260505061148 | 61 | 81 | 3.0 | 5.0 | 0.00 | 0.00 | 0.00 | 70 | 993.8 |
| 20260505060146 | 61 | 90 | 4.0 | 7.0 | 0.00 | 0.00 | 0.00 | 71 | 993.8 |
| 20260505055143 | 60 | 65 | 3.0 | 7.0 | 0.00 | 0.00 | 0.00 | 74 | 993.9 |
| 20260505054143 | 59 | 90 | 3.0 | 7.0 | 0.00 | 0.00 | 0.00 | 75 | 993.9 |
| 20260505053140 | 58 | 71 | 3.0 | 7.0 | 0.00 | 0.00 | 0.00 | 79 | 993.9 |
| 20260505052158 | 57 | 90 | 2.0 | 6.0 | 0.00 | 0.00 | 0.00 | 82 | 993.9 |
| 20260505051136 | 56 | 79 | 2.0 | 4.0 | 0.00 | 0.00 | 0.00 | 84 | 993.8 |
| 20260505050135 | 54 | 90 | 1.0 | 4.0 | 0.00 | 0.00 | 0.00 | 85 | 993.9 |
| 20260505041124 | 51 | 0 | 1.0 | 3.0 | 0.00 | 0.00 | 0.00 | 85 | 994.1 |
| 20260505040122 | 51 | 306 | 1.0 | 3.0 | 0.00 | 0.00 | 0.00 | 83 | 994.0 |
| 20260505035120 | 50 | 333 | 1.0 | 2.0 | 0.00 | 0.00 | 0.00 | 78 | 994.0 |
| 20260505034118 | 51 | 335 | 1.0 | 2.0 | 0.00 | 0.00 | 0.00 | 77 | 993.9 |
| 20260505033117 | 51 | 315 | 1.0 | 2.0 | 0.00 | 0.00 | 0.00 | 77 | 993.9 |
| 20260505032115 | 51 | 334 | 1.0 | 2.0 | 0.00 | 0.00 | 0.00 | 76 | 994.0 |
| 20260505031112 | 51 | 326 | 1.0 | 2.0 | 0.00 | 0.00 | 0.00 | 76 | 993.8 |
| 20260505030110 | 52 | 8 | 1.0 | 2.0 | 0.00 | 0.00 | 0.00 | 76 | 993.8 |
| 20260505025109 | 52 | 90 | 1.0 | 2.0 | 0.00 | 0.00 | 0.00 | 74 | 993.9 |
| 20260505024106 | 53 | 45 | 1.0 | 1.0 | 0.00 | 0.00 | 0.00 | 74 | 993.9 |
| 20260505023104 | 53 | 315 | 1.0 | 1.0 | 0.00 | 0.00 | 0.00 | 74 | 993.9 |
| 20260505022103 | 54 | 344 | 1.0 | 1.0 | 0.00 | 0.00 | 0.00 | 74 | 993.8 |
| 20260505021100 | 54 | 149 | 1.0 | 1.0 | 0.00 | 0.00 | 0.00 | 73 | 993.8 |
| 20260505020057 | 55 | 35 | 1.0 | 1.0 | 0.00 | 0.00 | 0.00 | 73 | 993.8 |
| 20260505015056 | 55 | 165 | 1.0 | 2.0 | 0.00 | 0.00 | 0.00 | 72 | 993.7 |
| 20260505014054 | 55 | 320 | 1.0 | 2.0 | 0.00 | 0.00 | 0.00 | 73 | 993.7 |
| 20260505013051 | 56 | 323 | 1.0 | 1.0 | 0.00 | 0.00 | 0.00 | 71 | 993.8 |
| 20260505012110 | 56 | 0.0 | 1.0 | 0.00 | 0.00 | 0.00 | 71 | 993.6 | |
| 20260505011048 | 57 | 90 | 1.0 | 1.0 | 0.00 | 0.00 | 0.00 | 73 | 993.6 |
| 20260505010047 | 56 | 56 | 1.0 | 3.0 | 0.00 | 0.00 | 0.00 | 73 | 993.6 |
| 20260505005104 | 56 | 65 | 1.0 | 3.0 | 0.00 | 0.00 | 0.00 | 72 | 993.5 |
| 20260505004042 | 56 | 62 | 1.0 | 4.0 | 0.00 | 0.00 | 0.00 | 72 | 993.6 |
| 20260505003040 | 56 | 61 | 1.0 | 4.0 | 0.00 | 0.00 | 0.00 | 71 | 993.6 |
| 20260505002039 | 56 | 52 | 1.0 | 3.0 | 0.00 | 0.00 | 0.00 | 70 | 993.6 |
| 20260505001037 | 55 | 60 | 1.0 | 4.0 | 0.00 | 0.00 | 0.00 | 68 | 993.5 |
| 20260505000034 | 55 | 60 | 1.0 | 4.0 | 0.00 | 0.00 | 0.00 | 67 | 993.7 |
| 20260504235032 | 55 | 52 | 1.0 | 4.0 | 0.00 | 0.00 | 0.00 | 64 | 993.8 |
| 20260504234030 | 54 | 60 | 1.0 | 1.0 | 0.00 | 0.00 | 0.00 | 65 | 993.8 |
| 20260504233029 | 54 | 33 | 1.0 | 1.0 | 0.00 | 0.00 | 0.00 | 65 | 993.8 |
| 20260504232045 | 54 | 45 | 1.0 | 3.0 | 0.00 | 0.00 | 0.00 | 65 | 993.9 |
| 20260504231025 | 55 | 90 | 1.0 | 1.0 | 0.00 | 0.00 | 0.00 | 64 | 993.8 |
| 20260504230023 | 55 | 32 | 1.0 | 1.0 | 0.00 | 0.00 | 0.00 | 63 | 993.7 |
| 20260504225020 | 55 | 351 | 1.0 | 1.0 | 0.00 | 0.00 | 0.00 | 62 | 993.8 |
| 20260504224018 | 56 | 320 | 1.0 | 2.0 | 0.00 | 0.00 | 0.00 | 62 | 993.7 |
| 20260504223037 | 56 | 122 | 1.0 | 1.0 | 0.00 | 0.00 | 0.00 | 61 | 993.5 |
| 20260504222014 | 57 | 90 | 1.0 | 1.0 | 0.00 | 0.00 | 0.00 | 60 | 993.6 |
| 20260504221012 | 58 | 90 | 1.0 | 1.0 | 0.00 | 0.00 | 0.00 | 59 | 993.7 |
| 20260504220051 | 58 | 315 | 1.0 | 3.0 | 0.00 | 0.00 | 0.00 | 58 | 993.7 |
| 20260504215008 | 59 | 0.0 | 1.0 | 0.00 | 0.00 | 0.00 | 58 | 993.6 | |
| 20260504214006 | 59 | 45 | 1.0 | 1.0 | 0.00 | 0.00 | 0.00 | 55 | 993.6 |
| 20260504213006 | 59 | 90 | 1.0 | 1.0 | 0.00 | 0.00 | 0.00 | 56 | 993.5 |
| 20260504212023 | 60 | 90 | 1.0 | 1.0 | 0.00 | 0.00 | 0.00 | 56 | 993.5 |
| 20260504205458 | 60 | 90 | 1.0 | 1.0 | 0.00 | 0.00 | 0.00 | 55 | 993.5 |
| 20260504204456 | 61 | 90 | 1.0 | 1.0 | 0.00 | 0.00 | 0.00 | 56 | 993.6 |
| 20260504203513 | 61 | 0.0 | 1.0 | 0.00 | 0.00 | 0.00 | 56 | 993.6 | |
| 20260504202451 | 62 | 0.0 | 1.0 | 0.00 | 0.00 | 0.00 | 55 | 993.5 | |
| 20260504201449 | 63 | 128 | 1.0 | 1.0 | 0.00 | 0.00 | 0.00 | 53 | 993.6 |
| 20260504200507 | 63 | 90 | 1.0 | 2.0 | 0.00 | 0.00 | 0.00 | 52 | 993.5 |
| 20260504195445 | 64 | 90 | 1.0 | 1.0 | 0.00 | 0.00 | 0.00 | 51 | 993.5 |
| 20260504194503 | 64 | 0.0 | 1.0 | 0.00 | 0.00 | 0.00 | 50 | 993.6 | |
| 20260504193441 | 65 | 0.0 | 1.0 | 0.00 | 0.00 | 0.00 | 50 | 993.6 | |
| 20260504192440 | 66 | 90 | 1.0 | 1.0 | 0.00 | 0.00 | 0.00 | 48 | 993.5 |
| 20260504191438 | 67 | 90 | 1.0 | 2.0 | 0.00 | 0.00 | 0.00 | 45 | 993.6 |
| 20260504190435 | 68 | 90 | 1.0 | 1.0 | 0.00 | 0.00 | 0.00 | 45 | 993.6 |
| 20260504185433 | 69 | 125 | 1.0 | 1.0 | 0.00 | 0.00 | 0.00 | 42 | 993.5 |
| 20260504184431 | 70 | 90 | 1.0 | 1.0 | 0.00 | 0.00 | 0.00 | 41 | 993.4 |
| 20260504183429 | 71 | 90 | 1.0 | 1.0 | 0.00 | 0.00 | 0.00 | 41 | 993.3 |
| 20260504182427 | 72 | 90 | 1.0 | 2.0 | 0.00 | 0.00 | 0.00 | 39 | 993.4 |
| 20260504181425 | 73 | 90 | 1.0 | 1.0 | 0.00 | 0.00 | 0.00 | 38 | 993.3 |
| 20260504180443 | 74 | 90 | 1.0 | 1.0 | 0.00 | 0.00 | 0.00 | 36 | 993.4 |
| 20260504175421 | 74 | 90 | 1.0 | 2.0 | 0.00 | 0.00 | 0.00 | 36 | 993.2 |
| 20260504174419 | 75 | 130 | 1.0 | 2.0 | 0.00 | 0.00 | 0.00 | 36 | 993.2 |
| 20260504173417 | 76 | 156 | 1.0 | 1.0 | 0.00 | 0.00 | 0.00 | 36 | 993.2 |
| 20260504172435 | 76 | 158 | 1.0 | 1.0 | 0.00 | 0.00 | 0.00 | 35 | 993.3 |
| 20260504171414 | 77 | 153 | 1.0 | 1.0 | 0.00 | 0.00 | 0.00 | 34 | 993.2 |
| 20260504170411 | 77 | 153 | 1.0 | 1.0 | 0.00 | 0.00 | 0.00 | 34 | 993.2 |
| 20260504160400 | 81 | 270 | 1.0 | 5.0 | 0.00 | 0.00 | 0.00 | 30 | 993.3 |
| 20260504150347 | 83 | 235 | 1.0 | 4.0 | 0.00 | 0.00 | 0.00 | 26 | 993.6 |
| 20260504140336 | 86 | 225 | 1.0 | 3.0 | 0.00 | 0.00 | 0.00 | 25 | 993.9 |
| 20260504130343 | 87 | 201 | 2.0 | 4.0 | 0.00 | 0.00 | 0.00 | 24 | 994.4 |
| 20260504110259 | 80 | 197 | 3.0 | 5.0 | 0.00 | 0.00 | 0.00 | 28 | 995.3 |
| 20260504100248 | 78 | 189 | 2.0 | 5.0 | 0.00 | 0.00 | 0.00 | 32 | 995.6 |
| 20260504081226 | 72 | 225 | 2.0 | 4.0 | 0.00 | 0.00 | 0.00 | 38 | 996.4 |
| 20260504080224 | 71 | 201 | 2.0 | 4.0 | 0.00 | 0.00 | 0.00 | 40 | 996.6 |
| 20260504070232 | 67 | 207 | 2.0 | 4.0 | 0.00 | 0.00 | 0.00 | 45 | 996.7 |